Location: Marsån
(66.4167°N, 22.2833°E)
Time: 10:50:04
(UTC+00:00)

ARIANE 5 R/B - Pass Details

Date: 24 February 2024
Orbit: 618 x 651 km, 98.1° (Epoch: 14 April)

Event Time Altitude Azimuth Distance (km) Brightness Sun altitude
Exits shadow 18:42:28 28° 53° (NE) 1,194 3.7 -20.2°
Maximum altitude 18:42:48 28° 45° (NE) 1,186 3.8 -20.2°
Drops below altitude 10° 18:46:33 10° 346° (NNW) 2,025 5.7 -20.6°
Sets 18:48:59 0° 335° (NNW) 2,942 6.8 -20.8°
